QPF
0.00 0.00 0.00 0.00 0.00 0.00 0.00 0.00 0.00 0.00 0.00 0.00 0.00 0.00 0.00 0.00 0.00 0.00 0.00 0.00 0.00 0.00 0.00 0.00 0.00 0.00 0.00 0.00 0.00 0.00 0.00 0.00 0.00 0.00 0.00 0.00 0.00 0.01 0.03 0.03 0.01 0.01 0.01 0.02 0.03 0.02 0.03 0.05 0.04
0.00 0.00 0.00 0.00 0.00 0.00 0.00 0.00 0.00 0.00 0.00 0.00 0.00 0.00 0.00 0.00 0.00 0.00 0.00 0.00 0.00 0.00 0.00 0.00 0.00 0.00 0.00 0.00 0.00 0.00 0.00 0.00 0.00 0.00 0.00 0.00 0.00 0.00 0.00 0.02 0.03 0.05 0.06 0.09 0.08 0.05 0.07 0.07 0.06
0.00 0.00 0.00 0.00 0.00 0.00 0.00 0.00 0.00 0.00 0.00 0.00 0.00 0.00 0.00 0.00 0.00 0.00 0.00 0.00 0.00 0.00 0.00 0.00 0.00 0.00 0.00 0.00 0.00 0.00 0.01 0.01 0.01 0.01 0.00 0.00 0.00 0.00 0.00 0.00 0.02 0.08 0.12 0.14 0.15 0.12 0.11 0.12 0.11
0.00 0.00 0.00 0.00 0.00 0.00 0.00 0.00 0.00 0.00 0.00 0.00 0.00 0.00 0.00 0.00 0.00 0.00 0.00 0.00 0.00 0.00 0.00 0.00 0.01 0.01 0.01 0.01 0.01 0.01 0.01 0.01 0.01 0.01 0.01 0.01 0.01 0.00 0.00 0.00 0.00 0.03 0.09 0.13 0.15 0.15 0.15 0.17 0.12
0.00 0.00 0.00 0.00 0.00 0.00 0.00 0.00 0.00 0.00 0.00 0.00 0.00 0.00 0.00 0.00 0.00 0.00 0.00 0.00 0.00 0.00 0.01 0.03 0.03 0.02 0.01 0.01 0.00 0.01 0.01 0.01 0.01 0.01 0.01 0.01 0.01 0.01 0.00 0.01 0.01 0.01 0.03 0.07 0.11 0.12 0.13 0.15 0.13
0.00 0.00 0.00 0.00 0.00 0.00 0.00 0.00 0.00 0.00 0.00 0.00 0.00 0.00 0.00 0.00 0.00 0.00 0.00 0.00 0.00 0.00 0.02 0.04 0.03 0.03 0.02 0.02 0.01 0.01 0.01 0.01 0.01 0.02 0.01 0.01 0.02 0.02 0.01 0.01 0.02 0.02 0.01 0.02 0.05 0.09 0.11 0.13 0.13
0.00 0.00 0.00 0.00 0.00 0.00 0.00 0.00 0.00 0.00 0.00 0.00 0.00 0.00 0.00 0.00 0.00 0.00 0.00 0.00 0.00 0.00 0.00 0.01 0.01 0.01 0.02 0.03 0.03 0.02 0.02 0.02 0.02 0.01 0.01 0.02 0.02 0.04 0.05 0.05 0.03 0.02 0.01 0.01 0.01 0.02 0.03 0.05 0.08
0.00 0.00 0.00 0.00 0.00 0.00 0.00 0.00 0.00 0.00 0.00 0.00 0.00 0.00 0.00 0.00 0.00 0.00 0.00 0.00 0.00 0.00 0.00 0.00 0.00 0.00 0.00 0.02 0.04 0.04 0.03 0.02 0.02 0.01 0.01 0.03 0.03 0.02 0.04 0.05 0.04 0.02 0.01 0.01 0.01 0.01 0.01 0.01 0.02
0.00 0.00 0.00 0.00 0.00 0.00 0.00 0.00 0.00 0.00 0.00 0.00 0.00 0.00 0.00 0.00 0.00 0.00 0.00 0.00 0.00 0.00 0.00 0.00 0.00 0.00 0.00 0.01 0.03 0.04 0.04 0.03 0.03 0.02 0.02 0.02 0.02 0.01 0.01 0.01 0.02 0.02 0.01 0.01 0.01 0.01 0.01 0.01 0.00
0.00 0.00 0.00 0.00 0.00 0.00 0.00 0.00 0.00 0.00 0.00 0.00 0.00 0.00 0.00 0.00 0.00 0.00 0.00 0.00 0.00 0.00 0.00 0.00 0.00 0.00 0.00 0.01 0.02 0.04 0.05 0.04 0.04 0.05 0.05 0.06 0.04 0.03 0.03 0.02 0.03 0.03 0.03 0.03 0.02 0.02 0.01 0.01 0.00
0.00 0.00 0.00 0.00 0.00 0.00 0.00 0.00 0.00 0.00 0.00 0.00 0.00 0.00 0.00 0.00 0.00 0.00 0.00 0.00 0.00 0.00 0.00 0.00 0.00 0.00 0.00 0.00 0.02 0.02 0.02 0.04 0.07 0.08 0.10 0.10 0.08 0.10 0.11 0.10 0.09 0.05 0.04 0.03 0.03 0.03 0.01 0.01 0.00
0.00 0.00 0.00 0.00 0.00 0.00 0.00 0.00 0.00 0.00 0.00 0.00 0.00 0.00 0.00 0.00 0.00 0.00 0.00 0.00 0.00 0.00 0.00 0.00 0.00 0.00 0.00 0.00 0.01 0.01 0.02 0.03 0.04 0.06 0.07 0.07 0.07 0.10 0.13 0.13 0.12 0.08 0.07 0.06 0.03 0.01 0.01 0.00 0.00
0.00 0.00 0.00 0.00 0.00 0.00 0.00 0.00 0.00 0.00 0.00 0.00 0.00 0.00 0.00 0.00 0.00 0.00 0.00 0.00 0.00 0.00 0.00 0.00 0.00 0.00 0.00 0.00 0.00 0.00 0.01 0.01 0.02 0.03 0.03 0.03 0.05 0.04 0.04 0.03 0.03 0.04 0.05 0.05 0.03 0.01 0.01 0.00 0.00
0.00 0.00 0.00 0.00 0.00 0.00 0.00 0.00 0.00 0.00 0.00 0.00 0.00 0.00 0.00 0.00 0.00 0.00 0.00 0.00 0.00 0.00 0.00 0.00 0.00 0.00 0.00 0.00 0.00 0.00 0.00 0.00 0.00 0.00 0.00 0.01 0.02 0.01 0.01 0.01 0.02 0.02 0.02 0.02 0.01 0.01 0.00 0.00 0.00
0.00 0.00 0.00 0.00 0.00 0.00 0.00 0.00 0.00 0.00 0.00 0.00 0.00 0.00 0.00 0.00 0.00 0.00 0.00 0.00 0.00 0.00 0.00 0.00 0.00 0.00 0.00 0.00 0.00 0.00 0.00 0.00 0.00 0.00 0.00 0.00 0.00 0.00 0.00 0.01 0.01 0.01 0.01 0.01 0.00 0.00 0.00 0.00 0.00
0.00 0.00 0.00 0.00 0.00 0.00 0.00 0.00 0.00 0.00 0.00 0.00 0.00 0.00 0.00 0.00 0.00 0.00 0.00 0.00 0.00 0.00 0.00 0.00 0.00 0.00 0.00 0.00 0.00 0.00 0.00 0.00 0.00 0.00 0.00 0.00 0.00 0.00 0.00 0.00 0.00 0.00 0.00 0.00 0.00 0.00 0.00 0.00 0.00
0.00 0.00 0.00 0.00 0.00 0.00 0.00 0.00 0.00 0.00 0.00 0.00 0.00 0.00 0.00 0.00 0.00 0.00 0.00 0.00 0.00 0.00 0.00 0.00 0.00 0.00 0.00 0.00 0.00 0.00 0.00 0.00 0.00 0.00 0.00 0.00 0.00 0.00 0.00 0.00 0.00 0.00 0.00 0.00 0.00 0.00 0.00 0.00 0.00
0.00 0.00 0.00 0.00 0.00 0.00 0.00 0.00 0.00 0.00 0.00 0.00 0.00 0.00 0.00 0.00 0.00 0.00 0.00 0.00 0.00 0.00 0.00 0.00 0.00 0.00 0.00 0.00 0.00 0.00 0.00 0.00 0.00 0.00 0.00 0.00 0.00 0.00 0.00 0.00 0.00 0.00 0.00 0.00 0.00 0.00 0.00 0.00 0.00
0.00 0.00 0.00 0.00 0.00 0.00 0.00 0.00 0.00 0.00 0.00 0.00 0.00 0.00 0.00 0.00 0.00 0.00 0.00 0.00 0.00 0.00 0.00 0.00 0.00 0.00 0.00 0.00 0.00 0.00 0.00 0.00 0.00 0.00 0.00 0.00 0.00 0.00 0.00 0.00 0.00 0.00 0.00 0.00 0.00 0.00 0.00 0.01 0.01
0.00 0.00 0.00 0.00 0.00 0.00 0.00 0.00 0.00 0.00 0.00 0.00 0.00 0.00 0.00 0.00 0.00 0.00 0.00 0.00 0.00 0.00 0.00 0.00 0.00 0.00 0.00 0.00 0.00 0.00 0.00 0.00 0.00 0.00 0.00 0.00 0.00 0.00 0.00 0.00 0.00 0.00 0.00 0.00 0.00 0.01 0.01 0.01 0.02
0.00 0.00 0.00 0.00 0.00 0.00 0.00 0.00 0.00 0.00 0.00 0.00 0.00 0.00 0.00 0.00 0.00 0.00 0.00 0.00 0.00 0.00 0.00 0.00 0.00 0.00 0.00 0.00 0.00 0.00 0.00 0.00 0.00 0.00 0.00 0.00 0.00 0.00 0.00 0.00 0.00 0.00 0.00 0.01 0.01 0.01 0.02 0.02 0.02
0.00 0.00 0.00 0.00 0.00 0.00 0.00 0.00 0.00 0.00 0.00 0.00 0.00 0.00 0.00 0.00 0.00 0.00 0.00 0.00 0.00 0.00 0.00 0.00 0.00 0.00 0.00 0.00 0.00 0.00 0.00 0.00 0.00 0.00 0.00 0.00 0.00 0.00 0.00 0.00 0.00 0.00 0.00 0.01 0.02 0.03 0.02 0.03 0.02
0.00 0.00 0.00 0.00 0.00 0.00 0.00 0.00 0.00 0.00 0.00 0.00 0.00 0.00 0.00 0.00 0.00 0.00 0.00 0.00 0.00 0.00 0.00 0.00 0.00 0.00 0.00 0.00 0.00 0.00 0.00 0.00 0.00 0.00 0.00 0.00 0.00 0.00 0.00 0.00 0.00 0.00 0.00 0.01 0.02 0.03 0.04 0.05 0.04
0.00 0.00 0.00 0.00 0.00 0.00 0.00 0.00 0.00 0.00 0.00 0.00 0.00 0.00 0.00 0.00 0.00 0.00 0.00 0.00 0.00 0.00 0.00 0.00 0.00 0.00 0.00 0.00 0.00 0.00 0.00 0.00 0.00 0.00 0.00 0.00 0.00 0.00 0.00 0.00 0.00 0.00 0.00 0.01 0.02 0.03 0.05 0.05 0.06
0.00 0.00 0.00 0.00 0.00 0.00 0.00 0.00 0.00 0.00 0.00 0.00 0.00 0.00 0.00 0.00 0.00 0.00 0.00 0.00 0.00 0.00 0.00 0.00 0.00 0.00 0.00 0.00 0.00 0.00 0.00 0.00 0.00 0.00 0.00 0.00 0.00 0.00 0.00 0.00 0.00 0.00 0.00 0.01 0.02 0.03 0.04 0.05 0.05
0.00 0.00 0.00 0.00 0.00 0.00 0.00 0.00 0.00 0.00 0.00 0.00 0.00 0.00 0.00 0.00 0.00 0.00 0.00 0.00 0.00 0.00 0.00 0.00 0.00 0.00 0.00 0.00 0.00 0.00 0.00 0.00 0.00 0.00 0.00 0.01 0.01 0.00 0.00 0.00 0.00 0.00 0.00 0.00 0.01 0.03 0.04 0.04 0.05
0.00 0.00 0.00 0.00 0.00 0.00 0.00 0.00 0.00 0.00 0.00 0.00 0.00 0.00 0.00 0.00 0.00 0.00 0.00 0.00 0.00 0.00 0.00 0.00 0.00 0.00 0.00 0.00 0.00 0.00 0.00 0.00 0.00 0.00 0.00 0.01 0.01 0.01 0.00 0.00 0.00 0.00 0.00 0.00 0.01 0.03 0.05 0.06 0.06
0.00 0.00 0.00 0.00 0.00 0.00 0.00 0.00 0.00 0.00 0.00 0.00 0.00 0.00 0.00 0.00 0.00 0.00 0.00 0.00 0.00 0.00 0.00 0.00 0.00 0.00 0.00 0.00 0.00 0.00 0.00 0.00 0.00 0.00 0.01 0.01 0.01 0.01 0.01 0.01 0.01 0.01 0.01 0.01 0.02 0.03 0.05 0.07 0.08
0.00 0.00 0.00 0.00 0.00 0.00 0.00 0.00 0.00 0.00 0.00 0.00 0.00 0.00 0.00 0.00 0.00 0.00 0.00 0.00 0.00 0.00 0.00 0.00 0.00 0.00 0.00 0.00 0.00 0.00 0.00 0.00 0.00 0.01 0.01 0.01 0.01 0.01 0.01 0.01 0.02 0.02 0.02 0.02 0.04 0.07 0.10 0.11 0.11
0.00 0.00 0.00 0.00 0.00 0.00 0.00 0.00 0.00 0.00 0.00 0.00 0.00 0.00 0.00 0.00 0.00 0.00 0.00 0.00 0.00 0.00 0.00 0.00 0.00 0.00 0.00 0.00 0.00 0.00 0.00 0.00 0.00 0.01 0.01 0.01 0.01 0.01 0.01 0.03 0.06 0.06 0.06 0.06 0.07 0.11 0.20 0.28 0.26
MSLP
1012.42 1013.30 1014.41 1015.57 1016.63 1017.42 1017.85 1017.92 1017.69 1017.27 1016.82 1016.48 1016.31 1016.34 1016.51 1016.72 1016.85 1016.81 1016.56 1016.10 1015.51 1014.89 1014.36 1013.99 1013.83 1013.87 1014.04 1014.27 1014.48 1014.62 1014.65 1014.59 1014.49 1014.40 1014.36 1014.37 1014.45 1014.55 1014.64 1014.68 1014.66 1014.58 1014.48 1014.37 1014.30 1014.28 1014.30 1014.37 1014.45
1013.05 1014.08 1015.27 1016.44 1017.43 1018.09 1018.35 1018.24 1017.84 1017.29 1016.76 1016.39 1016.23 1016.30 1016.52 1016.79 1016.98 1016.99 1016.76 1016.32 1015.75 1015.14 1014.60 1014.22 1014.04 1014.05 1014.19 1014.39 1014.56 1014.68 1014.70 1014.66 1014.58 1014.52 1014.50 1014.54 1014.62 1014.70 1014.76 1014.76 1014.69 1014.56 1014.41 1014.27 1014.17 1014.13 1014.15 1014.22 1014.31
1013.80 1014.92 1016.13 1017.26 1018.14 1018.66 1018.78 1018.54 1018.04 1017.45 1016.92 1016.57 1016.47 1016.58 1016.85 1017.14 1017.34 1017.34 1017.10 1016.66 1016.08 1015.46 1014.92 1014.53 1014.33 1014.30 1014.39 1014.53 1014.65 1014.72 1014.71 1014.65 1014.57 1014.51 1014.50 1014.55 1014.62 1014.70 1014.73 1014.70 1014.60 1014.45 1014.28 1014.12 1014.01 1013.96 1013.99 1014.07 1014.17
1014.64 1015.80 1016.98 1018.02 1018.78 1019.18 1019.20 1018.90 1018.41 1017.86 1017.41 1017.15 1017.13 1017.30 1017.58 1017.85 1018.00 1017.94 1017.65 1017.16 1016.55 1015.92 1015.37 1014.97 1014.74 1014.67 1014.70 1014.76 1014.80 1014.78 1014.70 1014.59 1014.47 1014.40 1014.38 1014.41 1014.48 1014.55 1014.58 1014.54 1014.44 1014.28 1014.11 1013.95 1013.85 1013.82 1013.86 1013.94 1014.06
1015.53 1016.67 1017.78 1018.71 1019.36 1019.67 1019.66 1019.40 1019.00 1018.58 1018.29 1018.17 1018.24 1018.45 1018.72 1018.93 1018.98 1018.82 1018.43 1017.87 1017.21 1016.57 1016.00 1015.59 1015.33 1015.21 1015.15 1015.12 1015.05 1014.92 1014.74 1014.55 1014.37 1014.24 1014.19 1014.21 1014.27 1014.32 1014.35 1014.32 1014.23 1014.09 1013.95 1013.82 1013.75 1013.74 1013.79 1013.88 1014.00
1016.40 1017.48 1018.48 1019.30 1019.87 1020.15 1020.18 1020.02 1019.80 1019.59 1019.50 1019.55 1019.73 1019.97 1020.20 1020.30 1020.22 1019.92 1019.41 1018.77 1018.06 1017.39 1016.82 1016.40 1016.11 1015.92 1015.79 1015.64 1015.45 1015.20 1014.90 1014.60 1014.34 1014.15 1014.05 1014.03 1014.06 1014.10 1014.13 1014.11 1014.04 1013.94 1013.83 1013.74 1013.70 1013.71 1013.78 1013.88 1013.98
1017.17 1018.16 1019.05 1019.77 1020.28 1020.58 1020.71 1020.74 1020.74 1020.80 1020.93 1021.16 1021.43 1021.69 1021.84 1021.82 1021.59 1021.14 1020.52 1019.79 1019.05 1018.37 1017.80 1017.37 1017.06 1016.81 1016.59 1016.33 1016.01 1015.63 1015.22 1014.82 1014.47 1014.20 1014.04 1013.97 1013.96 1013.97 1013.98 1013.96 1013.91 1013.83 1013.76 1013.70 1013.70 1013.73 1013.81 1013.90 1013.99
1017.79 1018.67 1019.45 1020.09 1020.59 1020.95 1021.23 1021.47 1021.73 1022.05 1022.41 1022.79 1023.14 1023.38 1023.45 1023.30 1022.93 1022.36 1021.64 1020.87 1020.12 1019.45 1018.90 1018.47 1018.13 1017.83 1017.52 1017.15 1016.72 1016.23 1015.72 1015.22 1014.80 1014.46 1014.23 1014.10 1014.03 1014.00 1013.96 1013.92 1013.85 1013.78 1013.72 1013.68 1013.70 1013.75 1013.83 1013.92 1014.00
1018.23 1019.00 1019.69 1020.28 1020.79 1021.24 1021.69 1022.16 1022.68 1023.23 1023.79 1024.29 1024.67 1024.88 1024.86 1024.60 1024.11 1023.45 1022.69 1021.92 1021.19 1020.56 1020.05 1019.63 1019.27 1018.91 1018.52 1018.07 1017.54 1016.96 1016.37 1015.81 1015.33 1014.94 1014.65 1014.45 1014.31 1014.19 1014.09 1013.98 1013.87 1013.76 1013.69 1013.65 1013.66 1013.72 1013.80 1013.88 1013.96
1018.52 1019.19 1019.80 1020.37 1020.93 1021.50 1022.12 1022.81 1023.54 1024.29 1024.98 1025.55 1025.93 1026.08 1025.97 1025.61 1025.06 1024.36 1023.62 1022.89 1022.24 1021.67 1021.21 1020.80 1020.42 1020.01 1019.55 1019.01 1018.41 1017.77 1017.14 1016.55 1016.04 1015.61 1015.27 1015.00 1014.77 1014.56 1014.35 1014.14 1013.95 1013.78 1013.65 1013.59 1013.58 1013.62 1013.69 1013.78 1013.84
1018.72 1019.32 1019.89 1020.47 1021.09 1021.79 1022.58 1023.45 1024.35 1025.22 1025.99 1026.57 1026.91 1026.98 1026.79 1026.37 1025.78 1025.11 1024.43 1023.80 1023.24 1022.76 1022.35 1021.96 1021.55 1021.08 1020.54 1019.93 1019.28 1018.60 1017.96 1017.37 1016.86 1016.42 1016.04 1015.70 1015.38 1015.05 1014.72 1014.39 1014.08 1013.82 1013.61 1013.48 1013.43 1013.45 1013.50 1013.58 1013.65
1018.95 1019.50 1020.05 1020.67 1021.37 1022.20 1023.14 1024.16 1025.18 1026.12 1026.90 1027.44 1027.70 1027.68 1027.40 1026.94 1026.36 1025.75 1025.17 1024.65 1024.21 1023.82 1023.45 1023.06 1022.61 1022.08 1021.46 1020.79 1020.09 1019.41 1018.77 1018.20 1017.71 1017.28 1016.88 1016.48 1016.07 1015.63 1015.16 1014.70 1014.26 1013.88 1013.58 1013.37 1013.26 1013.22 1013.25 1013.31 1013.38
1019.30 1019.82 1020.39 1021.07 1021.88 1022.83 1023.91 1025.04 1026.13 1027.08 1027.82 1028.27 1028.42 1028.30 1027.95 1027.46 1026.91 1026.37 1025.90 1025.50 1025.16 1024.85 1024.51 1024.10 1023.60 1022.98 1022.29 1021.56 1020.83 1020.14 1019.53 1019.00 1018.54 1018.12 1017.71 1017.27 1016.77 1016.23 1015.64 1015.05 1014.48 1013.98 1013.58 1013.28 1013.08 1012.99 1012.97 1013.00 1013.05
1019.83 1020.36 1020.97 1021.72 1022.65 1023.73 1024.92 1026.13 1027.26 1028.19 1028.84 1029.19 1029.22 1028.98 1028.56 1028.04 1027.51 1027.04 1026.67 1026.37 1026.11 1025.84 1025.51 1025.06 1024.48 1023.79 1023.02 1022.23 1021.47 1020.79 1020.20 1019.71 1019.29 1018.89 1018.47 1018.00 1017.44 1016.81 1016.13 1015.43 1014.76 1014.15 1013.64 1013.25 1012.97 1012.80 1012.71 1012.68 1012.69
1020.56 1021.10 1021.77 1022.61 1023.65 1024.85 1026.14 1027.41 1028.55 1029.44 1030.01 1030.24 1030.14 1029.80 1029.30 1028.74 1028.23 1027.81 1027.49 1027.26 1027.04 1026.78 1026.42 1025.92 1025.26 1024.49 1023.65 1022.81 1022.04 1021.36 1020.80 1020.34 1019.95 1019.56 1019.13 1018.63 1018.03 1017.34 1016.60 1015.82 1015.08 1014.40 1013.81 1013.33 1012.96 1012.69 1012.51 1012.40 1012.34
1021.43 1021.98 1022.70 1023.63 1024.77 1026.08 1027.46 1028.78 1029.93 1030.78 1031.26 1031.38 1031.18 1030.73 1030.16 1029.57 1029.05 1028.64 1028.35 1028.13 1027.92 1027.64 1027.23 1026.66 1025.93 1025.09 1024.20 1023.34 1022.55 1021.88 1021.34 1020.90 1020.51 1020.13 1019.69 1019.16 1018.53 1017.81 1017.03 1016.23 1015.44 1014.72 1014.07 1013.52 1013.06 1012.69 1012.40 1012.17 1012.01
1022.32 1022.88 1023.64 1024.64 1025.87 1027.27 1028.72 1030.08 1031.23 1032.05 1032.47 1032.51 1032.22 1031.70 1031.07 1030.45 1029.91 1029.49 1029.19 1028.95 1028.71 1028.38 1027.91 1027.28 1026.50 1025.62 1024.71 1023.83 1023.04 1022.38 1021.85 1021.41 1021.01 1020.61 1020.15 1019.60 1018.95 1018.22 1017.43 1016.63 1015.84 1015.10 1014.42 1013.81 1013.27 1012.79 1012.38 1012.03 1011.74
1023.13 1023.68 1024.45 1025.50 1026.79 1028.24 1029.74 1031.14 1032.29 1033.09 1033.48 1033.47 1033.14 1032.59 1031.93 1031.28 1030.72 1030.28 1029.95 1029.67 1029.37 1028.99 1028.47 1027.79 1026.98 1026.09 1025.18 1024.32 1023.55 1022.90 1022.36 1021.90 1021.47 1021.03 1020.53 1019.95 1019.28 1018.55 1017.78 1017.00 1016.24 1015.51 1014.82 1014.17 1013.55 1012.97 1012.43 1011.95 1011.54
1023.77 1024.27 1025.04 1026.09 1027.41 1028.89 1030.41 1031.82 1032.98 1033.77 1034.16 1034.15 1033.82 1033.27 1032.62 1031.98 1031.41 1030.96 1030.59 1030.26 1029.91 1029.48 1028.92 1028.22 1027.41 1026.53 1025.65 1024.82 1024.08 1023.44 1022.88 1022.39 1021.92 1021.42 1020.86 1020.24 1019.56 1018.83 1018.08 1017.34 1016.61 1015.90 1015.21 1014.53 1013.85 1013.17 1012.52 1011.91 1011.38
1024.18 1024.63 1025.36 1026.40 1027.70 1029.18 1030.69 1032.09 1033.24 1034.04 1034.44 1034.46 1034.18 1033.69 1033.09 1032.50 1031.96 1031.50 1031.12 1030.76 1030.36 1029.89 1029.31 1028.61 1027.82 1026.98 1026.15 1025.36 1024.65 1024.01 1023.44 1022.90 1022.36 1021.79 1021.16 1020.49 1019.78 1019.05 1018.32 1017.61 1016.91 1016.22 1015.53 1014.81 1014.08 1013.32 1012.57 1011.86 1011.23
1024.40 1024.78 1025.47 1026.46 1027.72 1029.16 1030.63 1031.99 1033.12 1033.92 1034.35 1034.44 1034.24 1033.84 1033.35 1032.84 1032.36 1031.94 1031.56 1031.19 1030.78 1030.29 1029.70 1029.01 1028.26 1027.47 1026.68 1025.94 1025.25 1024.62 1024.01 1023.42 1022.80 1022.14 1021.44 1020.71 1019.96 1019.21 1018.48 1017.78 1017.09 1016.41 1015.70 1014.96 1014.17 1013.35 1012.52 1011.74 1011.03
1024.53 1024.85 1025.48 1026.42 1027.62 1028.98 1030.37 1031.67 1032.76 1033.55 1034.01 1034.17 1034.07 1033.80 1033.44 1033.05 1032.67 1032.32 1031.98 1031.62 1031.21 1030.72 1030.13 1029.47 1028.75 1028.00 1027.26 1026.55 1025.88 1025.23 1024.59 1023.93 1023.23 1022.49 1021.71 1020.90 1020.10 1019.31 1018.56 1017.84 1017.14 1016.43 1015.69 1014.90 1014.06 1013.19 1012.30 1011.47 1010.73
1024.68 1024.96 1025.55 1026.44 1027.56 1028.83 1030.12 1031.33 1032.35 1033.10 1033.58 1033.80 1033.81 1033.68 1033.46 1033.21 1032.95 1032.70 1032.42 1032.10 1031.70 1031.22 1030.65 1030.00 1029.30 1028.58 1027.87 1027.17 1026.50 1025.83 1025.14 1024.41 1023.64 1022.81 1021.95 1021.07 1020.20 1019.36 1018.55 1017.78 1017.03 1016.27 1015.47 1014.62 1013.73 1012.80 1011.88 1011.02 1010.27
1024.95 1025.23 1025.80 1026.64 1027.70 1028.86 1030.04 1031.13 1032.05 1032.75 1033.21 1033.47 1033.57 1033.56 1033.48 1033.37 1033.25 1033.10 1032.90 1032.63 1032.26 1031.79 1031.23 1030.59 1029.90 1029.19 1028.48 1027.79 1027.09 1026.39 1025.65 1024.86 1024.01 1023.11 1022.17 1021.21 1020.26 1019.35 1018.47 1017.62 1016.78 1015.94 1015.06 1014.14 1013.18 1012.20 1011.26 1010.40 1009.66
1025.41 1025.73 1026.32 1027.13 1028.12 1029.18 1030.24 1031.19 1031.99 1032.59 1033.01 1033.28 1033.43 1033.52 1033.56 1033.58 1033.57 1033.52 1033.40 1033.18 1032.85 1032.40 1031.84 1031.21 1030.52 1029.80 1029.08 1028.36 1027.64 1026.90 1026.11 1025.26 1024.35 1023.38 1022.36 1021.33 1020.30 1019.30 1018.32 1017.37 1016.43 1015.48 1014.50 1013.50 1012.47 1011.46 1010.50 1009.64 1008.92
1026.09 1026.47 1027.09 1027.91 1028.84 1029.80 1030.72 1031.53 1032.18 1032.67 1033.02 1033.26 1033.43 1033.56 1033.69 1033.81 1033.90 1033.94 1033.89 1033.72 1033.43 1033.00 1032.45 1031.81 1031.11 1030.38 1029.64 1028.90 1028.14 1027.35 1026.52 1025.62 1024.65 1023.62 1022.54 1021.44 1020.33 1019.23 1018.15 1017.09 1016.03 1014.97 1013.89 1012.80 1011.72 1010.67 1009.70 1008.85 1008.16
1026.93 1027.40 1028.08 1028.90 1029.78 1030.65 1031.44 1032.09 1032.59 1032.95 1033.20 1033.38 1033.53 1033.69 1033.86 1034.04 1034.20 1034.31 1034.32 1034.20 1033.93 1033.52 1032.98 1032.35 1031.64 1030.90 1030.14 1029.37 1028.59 1027.76 1026.89 1025.96 1024.94 1023.86 1022.73 1021.56 1020.38 1019.19 1018.01 1016.84 1015.67 1014.51 1013.34 1012.18 1011.05 1009.97 1009.00 1008.16 1007.49
1027.87 1028.43 1029.16 1029.98 1030.82 1031.60 1032.25 1032.76 1033.11 1033.33 1033.47 1033.57 1033.69 1033.84 1034.03 1034.24 1034.45 1034.60 1034.65 1034.56 1034.33 1033.94 1033.42 1032.80 1032.10 1031.36 1030.59 1029.80 1029.00 1028.15 1027.25 1026.28 1025.24 1024.12 1022.95 1021.72 1020.47 1019.21 1017.94 1016.68 1015.43 1014.19 1012.96 1011.75 1010.60 1009.52 1008.55 1007.73 1007.07
1028.82 1029.46 1030.22 1031.02 1031.80 1032.48 1033.01 1033.38 1033.60 1033.71 1033.75 1033.78 1033.85 1033.98 1034.17 1034.40 1034.63 1034.80 1034.88 1034.83 1034.62 1034.26 1033.77 1033.16 1032.48 1031.75 1030.99 1030.20 1029.39 1028.53 1027.61 1026.63 1025.56 1024.42 1023.21 1021.94 1020.64 1019.33 1018.01 1016.69 1015.39 1014.10 1012.85 1011.64 1010.49 1009.43 1008.49 1007.69 1007.04
1029.73 1030.39 1031.14 1031.90 1032.60 1033.18 1033.60 1033.86 1033.97 1033.99 1033.96 1033.95 1033.99 1034.11 1034.30 1034.54 1034.77 1034.97 1035.06 1035.03 1034.85 1034.51 1034.05 1033.47 1032.81 1032.10 1031.36 1030.58 1029.77 1028.91 1027.98 1026.99 1025.91 1024.75 1023.52 1022.24 1020.92 1019.57 1018.23 1016.89 1015.58 1014.30 1013.06 1011.89 1010.79 1009.77 1008.87 1008.09 1007.45
Thickness
5734 5735 5734 5725 5703 5682 5681 5688 5693 5699 5709 5717 5718 5713 5705 5701 5697 5695 5718 5728 5729 5728 5727 5725 5723 5722 5721 5720 5720 5720 5721 5720 5720 5719 5718 5718 5719 5720 5720 5720 5721 5721 5722 5723 5723 5724 5725 5726 5726
5732 5732 5724 5708 5683 5667 5675 5684 5690 5697 5707 5717 5716 5710 5702 5697 5702 5706 5713 5719 5720 5719 5718 5717 5716 5715 5715 5715 5715 5715 5715 5714 5713 5713 5711 5712 5713 5714 5714 5715 5715 5716 5717 5718 5718 5720 5721 5722 5722
5731 5727 5709 5691 5672 5664 5672 5683 5688 5700 5707 5711 5706 5702 5694 5683 5688 5694 5702 5710 5712 5711 5710 5710 5710 5709 5708 5708 5708 5708 5709 5708 5707 5707 5706 5705 5707 5708 5709 5710 5710 5710 5711 5712 5713 5715 5716 5717 5718
5726 5715 5700 5684 5666 5672 5677 5683 5688 5697 5704 5702 5702 5690 5687 5675 5674 5686 5698 5703 5703 5703 5703 5704 5704 5704 5704 5704 5703 5702 5703 5702 5702 5702 5700 5700 5701 5702 5703 5704 5705 5705 5705 5707 5708 5709 5710 5711 5711
5719 5703 5682 5667 5669 5675 5680 5684 5689 5690 5689 5686 5692 5682 5674 5668 5673 5683 5690 5693 5693 5693 5694 5696 5697 5699 5699 5699 5698 5698 5698 5696 5696 5696 5695 5694 5695 5696 5697 5698 5698 5699 5700 5700 5701 5702 5704 5704 5705
5704 5691 5666 5657 5667 5674 5682 5683 5687 5681 5677 5673 5673 5675 5655 5654 5665 5669 5675 5678 5678 5679 5680 5682 5684 5687 5689 5690 5690 5690 5690 5689 5689 5689 5689 5688 5689 5689 5691 5691 5691 5692 5693 5694 5694 5695 5697 5698 5699
5694 5677 5663 5663 5665 5670 5678 5683 5672 5667 5661 5651 5655 5655 5642 5645 5649 5653 5661 5665 5666 5666 5667 5667 5669 5672 5675 5678 5678 5679 5679 5680 5680 5680 5680 5680 5681 5682 5683 5683 5684 5685 5685 5686 5687 5688 5689 5691 5693
5693 5676 5662 5662 5666 5668 5673 5673 5657 5650 5641 5638 5637 5626 5618 5625 5634 5642 5651 5652 5652 5652 5652 5652 5654 5657 5661 5664 5665 5667 5668 5668 5669 5669 5670 5670 5671 5673 5674 5675 5676 5677 5678 5679 5680 5680 5681 5683 5686
5694 5667 5658 5668 5670 5665 5662 5660 5650 5635 5630 5626 5618 5613 5611 5618 5628 5639 5642 5640 5638 5638 5637 5637 5639 5641 5643 5646 5648 5651 5653 5655 5657 5659 5660 5660 5661 5663 5664 5666 5667 5669 5670 5671 5672 5673 5675 5676 5678
5685 5661 5672 5678 5676 5658 5646 5644 5639 5625 5623 5615 5611 5610 5611 5617 5625 5626 5623 5621 5621 5621 5622 5622 5624 5625 5628 5630 5632 5634 5636 5638 5642 5645 5647 5650 5652 5654 5655 5656 5658 5659 5661 5662 5664 5666 5668 5669 5671
5685 5673 5679 5679 5677 5663 5645 5630 5626 5620 5604 5598 5597 5599 5605 5612 5614 5611 5607 5604 5603 5605 5608 5609 5608 5610 5612 5613 5615 5616 5618 5621 5624 5628 5631 5636 5639 5643 5646 5647 5648 5649 5652 5653 5656 5658 5660 5662 5664
5684 5681 5678 5670 5669 5655 5641 5626 5610 5605 5591 5592 5593 5594 5598 5600 5597 5594 5592 5591 5591 5592 5593 5594 5595 5595 5596 5596 5598 5599 5602 5604 5606 5609 5613 5618 5622 5627 5631 5636 5639 5641 5642 5644 5646 5649 5651 5654 5657
5679 5669 5655 5651 5648 5638 5630 5616 5606 5591 5588 5589 5591 5592 5590 5587 5583 5581 5580 5579 5578 5577 5576 5576 5578 5577 5578 5579 5580 5582 5584 5587 5589 5592 5595 5599 5603 5608 5614 5620 5625 5629 5633 5635 5637 5640 5642 5645 5649
5674 5663 5652 5650 5647 5633 5626 5609 5600 5585 5584 5584 5585 5582 5578 5575 5572 5571 5569 5566 5564 5561 5560 5560 5561 5559 5560 5562 5563 5564 5565 5567 5571 5574 5576 5580 5584 5589 5595 5602 5609 5615 5620 5624 5627 5630 5632 5635 5639
5675 5659 5651 5647 5642 5629 5625 5596 5584 5579 5577 5573 5568 5566 5565 5561 5559 5554 5550 5547 5544 5543 5542 5543 5544 5542 5543 5544 5546 5546 5547 5548 5550 5553 5556 5560 5564 5569 5576 5583 5590 5597 5604 5611 5616 5620 5622 5625 5628
5666 5653 5640 5640 5637 5629 5616 5573 5575 5570 5568 5562 5555 5552 5551 5548 5543 5538 5535 5532 5529 5527 5525 5524 5524 5524 5524 5526 5527 5529 5530 5531 5532 5533 5536 5539 5543 5548 5555 5562 5570 5578 5586 5594 5601 5607 5611 5615 5618
5646 5641 5638 5633 5622 5617 5601 5569 5560 5558 5557 5548 5542 5539 5539 5536 5532 5525 5520 5515 5511 5508 5507 5506 5505 5505 5504 5505 5506 5508 5510 5512 5514 5515 5516 5518 5522 5526 5532 5541 5549 5558 5568 5577 5585 5593 5597 5603 5607
5642 5639 5634 5623 5607 5600 5583 5559 5550 5547 5542 5531 5526 5524 5523 5519 5513 5507 5502 5498 5494 5490 5486 5485 5483 5482 5482 5482 5484 5485 5487 5489 5491 5493 5495 5498 5502 5506 5512 5520 5528 5537 5547 5558 5566 5575 5584 5590 5595
5649 5640 5629 5616 5605 5587 5567 5549 5540 5536 5529 5522 5515 5510 5505 5500 5495 5490 5483 5478 5473 5469 5464 5460 5456 5453 5453 5452 5453 5455 5459 5462 5466 5468 5470 5474 5480 5485 5491 5498 5507 5515 5525 5535 5545 5556 5567 5577 5580
5646 5635 5624 5605 5599 5578 5553 5541 5535 5530 5522 5512 5502 5494 5489 5488 5482 5475 5467 5458 5451 5444 5437 5432 5424 5421 5419 5416 5416 5419 5424 5429 5435 5440 5444 5448 5452 5458 5466 5474 5482 5490 5501 5514 5524 5534 5546 5560 5566
5637 5634 5627 5610 5582 5571 5553 5533 5528 5522 5515 5505 5493 5483 5475 5472 5461 5453 5444 5433 5423 5414 5406 5399 5391 5387 5384 5381 5382 5386 5392 5397 5401 5407 5414 5419 5424 5431 5439 5448 5457 5466 5477 5490 5501 5511 5523 5538 5550
5628 5633 5627 5614 5586 5562 5558 5525 5516 5513 5504 5495 5481 5469 5459 5448 5439 5428 5418 5406 5393 5384 5377 5372 5366 5361 5355 5350 5347 5346 5350 5356 5362 5370 5379 5388 5396 5405 5414 5424 5434 5444 5456 5468 5479 5492 5502 5514 5530
5628 5624 5618 5610 5592 5572 5560 5530 5509 5503 5491 5481 5469 5456 5442 5430 5418 5405 5391 5377 5366 5359 5353 5349 5346 5341 5335 5327 5322 5321 5321 5322 5328 5336 5349 5362 5373 5382 5392 5403 5414 5424 5435 5445 5456 5469 5481 5494 5508
5622 5618 5613 5597 5586 5581 5562 5542 5504 5486 5480 5467 5454 5440 5425 5412 5398 5383 5370 5357 5349 5343 5337 5333 5331 5328 5322 5314 5309 5306 5305 5307 5311 5318 5328 5340 5352 5363 5373 5385 5396 5405 5414 5424 5434 5445 5459 5473 5488
5611 5604 5595 5590 5579 5573 5535 5520 5491 5483 5472 5458 5442 5426 5410 5394 5379 5366 5355 5345 5339 5333 5326 5320 5317 5315 5310 5303 5299 5296 5295 5296 5299 5305 5313 5324 5336 5347 5358 5369 5379 5388 5396 5406 5415 5426 5438 5452 5467
5600 5591 5575 5568 5561 5553 5531 5508 5480 5476 5464 5448 5430 5414 5396 5378 5363 5352 5341 5332 5327 5321 5314 5308 5304 5301 5298 5293 5290 5290 5289 5289 5291 5295 5302 5313 5322 5334 5345 5355 5365 5375 5384 5392 5400 5410 5421 5432 5447
5596 5574 5571 5551 5539 5526 5520 5490 5478 5467 5450 5433 5416 5398 5379 5364 5351 5340 5330 5322 5316 5310 5302 5296 5292 5289 5287 5284 5283 5284 5283 5283 5285 5288 5294 5303 5311 5322 5333 5344 5355 5366 5376 5385 5392 5400 5408 5416 5428
5581 5565 5545 5538 5531 5523 5515 5487 5465 5449 5431 5418 5402 5386 5368 5353 5342 5332 5322 5313 5305 5299 5292 5286 5282 5278 5276 5275 5273 5275 5275 5277 5279 5283 5289 5297 5305 5313 5323 5333 5344 5356 5367 5376 5383 5390 5396 5402 5412
5575 5560 5537 5512 5505 5494 5479 5485 5454 5439 5422 5402 5390 5374 5355 5343 5334 5323 5313 5303 5294 5289 5282 5276 5272 5269 5267 5266 5265 5266 5268 5270 5273 5277 5282 5289 5298 5305 5314 5321 5331 5344 5355 5363 5370 5377 5382 5387 5394
5563 5550 5530 5515 5499 5475 5456 5461 5448 5429 5407 5390 5377 5361 5343 5333 5324 5315 5304 5293 5285 5279 5272 5266 5261 5257 5254 5253 5253 5254 5256 5259 5262 5267 5272 5278 5286 5293 5301 5308 5316 5328 5338 5344 5350 5358 5364 5369 5375